Powrót do katalogu

STARLINK-34941

AktywnyŁącznośćVLEO
NORAD 65210·PAYLOAD·🇺🇸 United States

Wystrzelony Aug 14, 2025 z Cape Canaveral Space Force Station

Loading…

Następne Przeloty (najbliższe 24 godziny)

TLE

ŚwieżeSource: CelesTrak SupGP

Epoka: Sep 15, 2026, 03:32 UTC

1 65210C 25176N   26258.14770833  .00072803  00000+0  21501-2 0  2589
2 65210  53.1594 348.9196 0001212  93.4837 166.5834 15.34366988    10

Śledź STARLINK-34941 w czasie rzeczywistym z AllMySat

Download on the App Store